Time,TemperatureF,DewpointF,PressureIn,WindDirection,WindDirectionDegrees,WindSpeedMPH,WindSpeedGustMPH,Humidity,HourlyPrecipIn,Conditions,Clouds,dailyrainin,SoftwareType,DateUTC
2013-03-10 00:00:00,32.2,27.0,30.23,SE,133,0.0,8.0,81,0.00,,,0.00,Wunderground v.1.15,2013-03-10 05:00:00,
2013-03-10 00:05:00,32.2,27.3,30.22,SE,133,0.0,8.0,82,0.00,,,0.00,Wunderground v.1.15,2013-03-10 05:05:00,
2013-03-10 00:10:00,32.2,27.3,30.23,SE,133,0.0,8.0,82,0.00,,,0.00,Wunderground v.1.15,2013-03-10 05:10:00,
2013-03-10 00:15:00,32.2,27.3,30.22,SE,133,0.0,8.0,82,0.00,,,0.00,Wunderground v.1.15,2013-03-10 05:15:00,
2013-03-10 00:20:00,32.2,27.3,30.22,SE,133,0.0,8.0,82,0.00,,,0.00,Wunderground v.1.15,2013-03-10 05:20:00,
2013-03-10 00:25:00,32.1,27.2,30.22,SE,133,0.0,8.0,82,0.00,,,0.00,Wunderground v.1.15,2013-03-10 05:25:00,
2013-03-10 00:30:00,32.5,27.3,30.22,SE,134,0.0,8.0,81,0.00,,,0.00,Wunderground v.1.15,2013-03-10 05:30:00,
2013-03-10 00:35:00,33.0,27.2,30.21,SE,134,0.0,8.0,79,0.00,,,0.00,Wunderground v.1.15,2013-03-10 05:35:00,
2013-03-10 00:40:00,33.5,27.4,30.21,SE,134,0.0,8.0,78,0.00,,,0.00,Wunderground v.1.15,2013-03-10 05:40:00,
2013-03-10 00:45:00,34.2,28.4,30.21,WSW,254,0.0,8.0,79,0.00,,,0.00,Wunderground v.1.15,2013-03-10 05:45:00,
2013-03-10 00:50:00,34.7,27.9,30.21,WSW,254,1.0,1.0,76,0.00,,,0.00,Wunderground v.1.15,2013-03-10 05:50:00,
2013-03-10 01:00:00,34.6,28.1,30.21,East,101,0.0,8.0,77,0.00,,,0.00,Wunderground v.1.15,2013-03-10 06:00:00,
2013-03-10 01:05:00,33.9,27.8,30.20,ESE,102,0.0,8.0,78,0.00,,,0.00,Wunderground v.1.15,2013-03-10 06:05:00,
2013-03-10 01:10:00,33.2,27.4,30.20,ESE,102,0.0,8.0,79,0.00,,,0.00,Wunderground v.1.15,2013-03-10 06:10:00,
2013-03-10 01:15:00,33.2,27.4,30.20,ESE,102,0.0,8.0,79,0.00,,,0.00,Wunderground v.1.15,2013-03-10 06:15:00,
2013-03-10 01:20:00,33.6,28.1,30.20,ESE,102,0.0,8.0,80,0.00,,,0.00,Wunderground v.1.15,2013-03-10 06:20:00,
2013-03-10 01:25:00,35.0,28.2,30.20,West,271,0.0,8.0,76,0.00,,,0.00,Wunderground v.1.15,2013-03-10 06:25:00,
2013-03-10 01:35:00,36.7,28.2,30.20,West,269,0.0,8.0,71,0.00,,,0.00,Wunderground v.1.15,2013-03-10 06:35:00,
2013-03-10 01:40:00,37.1,28.2,30.20,West,269,0.0,8.0,70,0.00,,,0.00,Wunderground v.1.15,2013-03-10 06:40:00,
2013-03-10 01:45:00,37.2,28.3,30.19,West,269,0.0,8.0,70,0.00,,,0.00,Wunderground v.1.15,2013-03-10 06:45:00,
2013-03-10 01:50:00,37.1,28.2,30.19,West,269,0.0,8.0,70,0.00,,,0.00,Wunderground v.1.15,2013-03-10 06:50:00,
2013-03-10 01:55:00,37.1,28.2,30.19,West,269,0.0,8.0,70,0.00,,,0.00,Wunderground v.1.15,2013-03-10 06:55:00,
2013-03-10 03:00:00,37.0,28.1,30.19,West,269,0.0,8.0,70,0.00,,,0.00,Wunderground v.1.15,2013-03-10 07:00:00,
2013-03-10 03:05:00,37.1,27.9,30.19,SW,236,0.0,8.0,69,0.00,,,0.00,Wunderground v.1.15,2013-03-10 07:05:00,
2013-03-10 03:15:00,37.9,27.9,30.18,SW,223,1.0,8.0,67,0.00,,,0.00,Wunderground v.1.15,2013-03-10 07:15:00,
2013-03-10 03:20:00,38.5,28.1,30.17,SSW,194,1.0,8.0,66,0.00,,,0.00,Wunderground v.1.15,2013-03-10 07:20:00,
2013-03-10 03:25:00,39.4,27.8,30.17,SSW,205,1.0,8.0,63,0.00,,,0.00,Wunderground v.1.15,2013-03-10 07:25:00,
2013-03-10 03:30:00,40.2,28.2,30.17,West,269,1.0,1.0,62,0.00,,,0.00,Wunderground v.1.15,2013-03-10 07:30:00,
2013-03-10 03:35:00,39.3,27.7,30.17,WNW,289,1.0,8.0,63,0.00,,,0.00,Wunderground v.1.15,2013-03-10 07:35:00,
2013-03-10 03:40:00,37.5,27.5,30.16,South,190,0.0,8.0,67,0.00,,,0.00,Wunderground v.1.15,2013-03-10 07:40:00,
2013-03-10 03:50:00,41.2,27.9,30.16,WSW,254,4.0,8.0,59,0.00,,,0.00,Wunderground v.1.15,2013-03-10 07:50:00,
2013-03-10 03:55:00,39.6,27.6,30.16,West,271,4.0,8.0,62,0.00,,,0.00,Wunderground v.1.15,2013-03-10 07:55:00,
2013-03-10 04:00:00,38.8,27.7,30.16,SW,226,3.0,8.0,64,0.00,,,0.00,Wunderground v.1.15,2013-03-10 08:00:00,
2013-03-10 04:05:00,39.8,27.4,30.15,SW,235,3.0,8.0,61,0.00,,,0.00,Wunderground v.1.15,2013-03-10 08:05:00,
2013-03-10 04:10:00,39.8,27.4,30.15,SW,235,4.0,8.0,61,0.00,,,0.00,Wunderground v.1.15,2013-03-10 08:10:00,
2013-03-10 04:15:00,43.1,27.1,30.15,WSW,237,8.0,8.0,53,0.00,,,0.00,Wunderground v.1.15,2013-03-10 08:15:00,
2013-03-10 04:25:00,43.7,27.2,30.15,SW,230,6.0,8.0,52,0.00,,,0.00,Wunderground v.1.15,2013-03-10 08:25:00,
2013-03-10 04:30:00,43.7,26.7,30.14,SW,230,6.0,8.0,51,0.00,,,0.00,Wunderground v.1.15,2013-03-10 08:30:00,
2013-03-10 04:35:00,44.0,26.5,30.14,SSW,211,6.0,8.0,50,0.00,,,0.00,Wunderground v.1.15,2013-03-10 08:35:00,
2013-03-10 04:40:00,44.1,27.1,30.14,SW,229,6.0,8.0,51,0.00,,,0.00,Wunderground v.1.15,2013-03-10 08:40:00,
2013-03-10 04:45:00,44.1,26.6,30.14,SW,225,6.0,8.0,50,0.00,,,0.00,Wunderground v.1.15,2013-03-10 08:45:00,
2013-03-10 04:50:00,44.0,26.5,30.15,SW,226,5.0,5.0,50,0.00,,,0.00,Wunderground v.1.15,2013-03-10 08:50:00,
2013-03-10 05:00:00,43.9,26.9,30.14,SW,223,5.0,5.0,51,0.00,,,0.00,Wunderground v.1.15,2013-03-10 09:00:00,
2013-03-10 05:05:00,43.8,26.8,30.14,WSW,240,3.0,8.0,51,0.00,,,0.00,Wunderground v.1.15,2013-03-10 09:05:00,
2013-03-10 05:10:00,43.8,26.8,30.14,SW,232,3.0,8.0,51,0.00,,,0.00,Wunderground v.1.15,2013-03-10 09:10:00,
2013-03-10 05:15:00,43.9,26.9,30.14,SSW,200,3.0,8.0,51,0.00,,,0.00,Wunderground v.1.15,2013-03-10 09:15:00,
2013-03-10 05:20:00,44.2,26.7,30.14,SW,219,4.0,8.0,50,0.00,,,0.00,Wunderground v.1.15,2013-03-10 09:20:00,
2013-03-10 05:25:00,44.3,26.3,30.14,SW,229,4.0,8.0,49,0.00,,,0.00,Wunderground v.1.15,2013-03-10 09:25:00,
2013-03-10 05:30:00,44.4,25.9,30.14,WSW,252,4.0,4.0,48,0.00,,,0.00,Wunderground v.1.15,2013-03-10 09:30:00,
2013-03-10 05:40:00,44.8,25.8,30.13,SSW,205,5.0,8.0,47,0.00,,,0.00,Wunderground v.1.15,2013-03-10 09:40:00,
2013-03-10 05:45:00,45.0,26.0,30.13,SW,226,6.0,8.0,47,0.00,,,0.00,Wunderground v.1.15,2013-03-10 09:45:00,
2013-03-10 05:50:00,45.1,25.5,30.13,SSW,210,6.0,8.0,46,0.00,,,0.00,Wunderground v.1.15,2013-03-10 09:50:00,
2013-03-10 05:55:00,45.2,25.6,30.13,SW,217,5.0,8.0,46,0.00,,,0.00,Wunderground v.1.15,2013-03-10 09:55:00,
2013-03-10 06:00:00,45.2,25.6,30.13,SW,231,5.0,5.0,46,0.00,,,0.00,Wunderground v.1.15,2013-03-10 10:00:00,
2013-03-10 06:10:00,45.2,25.6,30.13,WSW,238,3.0,3.0,46,0.00,,,0.00,Wunderground v.1.15,2013-03-10 10:10:00,
2013-03-10 06:15:00,45.1,25.5,30.13,SW,220,3.0,5.0,46,0.00,,,0.00,Wunderground v.1.15,2013-03-10 10:15:00,
2013-03-10 06:20:00,45.2,25.6,30.13,SSW,203,4.0,8.0,46,0.00,,,0.00,Wunderground v.1.15,2013-03-10 10:20:00,
2013-03-10 06:25:00,45.3,25.2,30.13,SW,229,5.0,8.0,45,0.00,,,0.00,Wunderground v.1.15,2013-03-10 10:25:00,
2013-03-10 06:30:00,45.4,25.8,30.13,SW,223,5.0,5.0,46,0.00,,,0.00,Wunderground v.1.15,2013-03-10 10:30:00,
2013-03-10 06:35:00,45.4,25.8,30.13,SW,227,5.0,8.0,46,0.00,,,0.00,Wunderground v.1.15,2013-03-10 10:35:00,
2013-03-10 06:45:00,45.4,25.3,30.12,SSW,211,6.0,7.0,45,0.00,,,0.00,Wunderground v.1.15,2013-03-10 10:45:00,
2013-03-10 06:50:00,45.6,24.9,30.12,WSW,254,7.0,7.0,44,0.00,,,0.00,Wunderground v.1.15,2013-03-10 10:50:00,
2013-03-10 06:55:00,45.6,24.9,30.12,SW,219,6.0,8.0,44,0.00,,,0.00,Wunderground v.1.15,2013-03-10 10:55:00,
2013-03-10 07:00:00,45.7,25.0,30.12,SW,223,7.0,12.0,44,0.00,,,0.00,Wunderground v.1.15,2013-03-10 11:00:00,
2013-03-10 07:05:00,45.7,25.0,30.12,SSW,208,8.0,12.0,44,0.00,,,0.00,Wunderground v.1.15,2013-03-10 11:05:00,
2013-03-10 07:15:00,45.7,25.0,30.13,SSW,213,8.0,14.0,44,0.00,,,0.00,Wunderground v.1.15,2013-03-10 11:15:00,
2013-03-10 07:20:00,45.6,24.9,30.12,SW,234,8.0,9.0,44,0.00,,,0.00,Wunderground v.1.15,2013-03-10 11:20:00,
2013-03-10 07:25:00,45.6,24.9,30.12,SW,220,9.0,9.0,44,0.00,,,0.00,Wunderground v.1.15,2013-03-10 11:25:00,
2013-03-10 07:30:00,45.6,24.9,30.12,South,184,8.0,8.0,44,0.00,,,0.00,Wunderground v.1.15,2013-03-10 11:30:00,
2013-03-10 07:35:00,45.6,24.4,30.12,SW,215,7.0,8.0,43,0.00,,,0.00,Wunderground v.1.15,2013-03-10 11:35:00,
2013-03-10 07:40:00,45.6,24.9,30.12,SSW,202,7.0,14.0,44,0.00,,,0.00,Wunderground v.1.15,2013-03-10 11:40:00,
2013-03-10 07:50:00,45.7,24.5,30.11,SW,225,10.0,11.0,43,0.00,,,0.00,Wunderground v.1.15,2013-03-10 11:50:00,
2013-03-10 07:55:00,45.8,25.1,30.12,SSW,205,9.0,11.0,44,0.00,,,0.00,Wunderground v.1.15,2013-03-10 11:55:00,
2013-03-10 08:00:00,45.9,24.6,30.12,SSW,205,9.0,9.0,43,0.00,,,0.00,Wunderground v.1.15,2013-03-10 12:00:00,
2013-03-10 08:05:00,46.0,24.7,30.12,SSW,209,8.0,9.0,43,0.00,,,0.00,Wunderground v.1.15,2013-03-10 12:05:00,
2013-03-10 08:10:00,46.1,24.8,30.12,SSW,200,8.0,8.0,43,0.00,,,0.00,Wunderground v.1.15,2013-03-10 12:10:00,
2013-03-10 08:15:00,46.1,24.8,30.12,SW,217,8.0,8.0,43,0.00,,,0.00,Wunderground v.1.15,2013-03-10 12:15:00,
2013-03-10 08:25:00,46.2,24.9,30.11,SSW,211,9.0,9.0,43,0.00,,,0.00,Wunderground v.1.15,2013-03-10 12:25:00,
2013-03-10 08:30:00,46.2,24.9,30.11,SW,217,9.0,11.0,43,0.00,,,0.00,Wunderground v.1.15,2013-03-10 12:30:00,
2013-03-10 08:35:00,46.3,25.0,30.11,SSW,207,8.0,11.0,43,0.00,,,0.00,Wunderground v.1.15,2013-03-10 12:35:00,
2013-03-10 08:40:00,46.3,25.0,30.11,SSW,213,7.0,8.0,43,0.00,,,0.00,Wunderground v.1.15,2013-03-10 12:40:00,
2013-03-10 08:50:00,46.7,25.4,30.11,SSW,202,8.0,8.0,43,0.00,,,0.00,Wunderground v.1.15,2013-03-10 12:50:00,
2013-03-10 09:00:00,46.9,25.5,30.11,SW,221,8.0,8.0,43,0.00,,,0.00,Wunderground v.1.15,2013-03-10 13:00:00,
2013-03-10 09:05:00,46.9,25.5,30.11,SW,235,6.0,8.0,43,0.00,,,0.00,Wunderground v.1.15,2013-03-10 13:05:00,
2013-03-10 09:10:00,47.0,25.6,30.11,SW,218,6.0,8.0,43,0.00,,,0.00,Wunderground v.1.15,2013-03-10 13:10:00,
2013-03-10 09:15:00,47.0,25.6,30.11,SSW,196,7.0,11.0,43,0.00,,,0.00,Wunderground v.1.15,2013-03-10 13:15:00,
2013-03-10 09:20:00,46.9,25.5,30.10,SW,229,7.0,8.0,43,0.00,,,0.00,Wunderground v.1.15,2013-03-10 13:20:00,
2013-03-10 09:25:00,47.0,25.6,30.10,SSW,213,8.0,8.0,43,0.00,,,0.00,Wunderground v.1.15,2013-03-10 13:25:00,
2013-03-10 09:30:00,47.2,25.8,30.10,South,190,8.0,11.0,43,0.00,,,0.00,Wunderground v.1.15,2013-03-10 13:30:00,
2013-03-10 09:40:00,47.5,26.1,30.10,SSW,204,8.0,9.0,43,0.00,,,0.00,Wunderground v.1.15,2013-03-10 13:40:00,
2013-03-10 09:45:00,47.6,26.2,30.10,South,190,8.0,9.0,43,0.00,,,0.00,Wunderground v.1.15,2013-03-10 13:45:00,
2013-03-10 09:50:00,47.9,25.9,30.10,SW,218,9.0,14.0,42,0.00,,,0.00,Wunderground v.1.15,2013-03-10 13:50:00,
2013-03-10 09:55:00,48.0,26.0,30.10,SW,221,9.0,14.0,42,0.00,,,0.00,Wunderground v.1.15,2013-03-10 13:55:00,
2013-03-10 10:00:00,48.0,26.0,30.10,SSW,200,10.0,10.0,42,0.00,,,0.00,Wunderground v.1.15,2013-03-10 14:00:00,
2013-03-10 10:05:00,48.2,26.2,30.10,WSW,240,9.0,10.0,42,0.00,,,0.00,Wunderground v.1.15,2013-03-10 14:05:00,
2013-03-10 10:10:00,48.3,25.7,30.10,SW,230,9.0,9.0,41,0.00,,,0.00,Wunderground v.1.15,2013-03-10 14:10:00,
2013-03-10 10:20:00,48.3,26.2,30.10,SSW,208,10.0,13.0,42,0.00,,,0.00,Wunderground v.1.15,2013-03-10 14:20:00,
2013-03-10 10:25:00,48.5,25.8,30.10,SW,215,9.0,17.0,41,0.00,,,0.00,Wunderground v.1.15,2013-03-10 14:25:00,
2013-03-10 10:30:00,48.5,26.4,30.10,SSW,207,10.0,12.0,42,0.00,,,0.00,Wunderground v.1.15,2013-03-10 14:30:00,
2013-03-10 10:35:00,48.6,25.9,30.10,SSW,195,9.0,12.0,41,0.00,,,0.00,Wunderground v.1.15,2013-03-10 14:35:00,
2013-03-10 10:40:00,48.7,26.6,30.10,SSW,200,9.0,9.0,42,0.00,,,0.00,Wunderground v.1.15,2013-03-10 14:40:00,
2013-03-10 10:45:00,48.8,26.7,30.10,SSW,209,9.0,9.0,42,0.00,,,0.00,Wunderground v.1.15,2013-03-10 14:45:00,
2013-03-10 10:55:00,49.1,26.4,30.10,SSW,208,8.0,9.0,41,0.00,,,0.00,Wunderground v.1.15,2013-03-10 14:55:00,
2013-03-10 11:00:00,49.2,26.5,30.10,SSW,213,8.0,8.0,41,0.00,,,0.00,Wunderground v.1.15,2013-03-10 15:00:00,
2013-03-10 11:05:00,49.3,26.0,30.10,SSW,201,8.0,8.0,40,0.00,,,0.00,Wunderground v.1.15,2013-03-10 15:05:00,
2013-03-10 11:10:00,49.5,26.1,30.10,SSE,156,9.0,9.0,40,0.00,,,0.00,Wunderground v.1.15,2013-03-10 15:10:00,
2013-03-10 11:15:00,49.9,26.5,30.10,SW,223,9.0,9.0,40,0.00,,,0.00,Wunderground v.1.15,2013-03-10 15:15:00,
2013-03-10 11:20:00,50.1,26.7,30.09,SW,225,9.0,11.0,40,0.00,,,0.00,Wunderground v.1.15,2013-03-10 15:20:00,
2013-03-10 11:30:00,50.5,26.4,30.09,SW,223,10.0,10.0,39,0.00,,,0.00,Wunderground v.1.15,2013-03-10 15:30:00,
2013-03-10 11:35:00,50.4,27.0,30.09,SW,230,10.0,10.0,40,0.00,,,0.00,Wunderground v.1.15,2013-03-10 15:35:00,
2013-03-10 11:40:00,50.5,26.4,30.09,SSW,205,9.0,9.0,39,0.00,,,0.00,Wunderground v.1.15,2013-03-10 15:40:00,
2013-03-10 11:45:00,50.8,26.7,30.09,SW,218,8.0,9.0,39,0.00,,,0.00,Wunderground v.1.15,2013-03-10 15:45:00,
2013-03-10 11:50:00,51.0,27.5,30.09,SSW,211,8.0,9.0,40,0.00,,,0.00,Wunderground v.1.15,2013-03-10 15:50:00,
2013-03-10 11:55:00,51.2,27.1,30.08,SW,229,8.0,12.0,39,0.00,,,0.00,Wunderground v.1.15,2013-03-10 15:55:00,
2013-03-10 12:05:00,51.7,27.5,30.08,SSW,201,7.0,8.0,39,0.00,,,0.00,Wunderground v.1.15,2013-03-10 16:05:00,
2013-03-10 12:10:00,51.8,28.8,30.08,SSW,212,6.0,6.0,41,0.00,,,0.00,Wunderground v.1.15,2013-03-10 16:10:00,
2013-03-10 12:15:00,52.0,27.8,30.08,SSE,167,6.0,8.0,39,0.00,,,0.00,Wunderground v.1.15,2013-03-10 16:15:00,
2013-03-10 12:20:00,52.2,28.6,30.08,SSW,208,7.0,7.0,40,0.00,,,0.00,Wunderground v.1.15,2013-03-10 16:20:00,
2013-03-10 12:25:00,52.5,28.2,30.08,SW,223,7.0,8.0,39,0.00,,,0.00,Wunderground v.1.15,2013-03-10 16:25:00,
2013-03-10 12:30:00,53.0,28.7,30.08,SSE,163,8.0,10.0,39,0.00,,,0.00,Wunderground v.1.15,2013-03-10 16:30:00,
2013-03-10 12:40:00,53.3,27.7,30.08,SW,218,8.0,15.0,37,0.00,,,0.00,Wunderground v.1.15,2013-03-10 16:40:00,
2013-03-10 12:45:00,53.3,28.3,30.08,SSW,205,8.0,15.0,38,0.00,,,0.00,Wunderground v.1.15,2013-03-10 16:45:00,
2013-03-10 12:50:00,53.5,28.5,30.08,SW,221,7.0,7.0,38,0.00,,,0.00,Wunderground v.1.15,2013-03-10 16:50:00,
2013-03-10 12:55:00,53.6,28.6,30.08,SW,222,7.0,8.0,38,0.00,,,0.00,Wunderground v.1.15,2013-03-10 16:55:00,
2013-03-10 13:00:00,53.8,28.8,30.08,SSE,158,8.0,8.0,38,0.00,,,0.00,Wunderground v.1.15,2013-03-10 17:00:00,
2013-03-10 13:05:00,54.1,29.0,30.07,South,172,8.0,8.0,38,0.00,,,0.00,Wunderground v.1.15,2013-03-10 17:05:00,
2013-03-10 13:10:00,54.2,29.1,30.07,SSW,207,7.0,11.0,38,0.00,,,0.00,Wunderground v.1.15,2013-03-10 17:10:00,
2013-03-10 13:20:00,54.6,30.1,30.06,SSW,208,7.0,7.0,39,0.00,,,0.00,Wunderground v.1.15,2013-03-10 17:20:00,
2013-03-10 13:25:00,55.3,30.7,30.07,SSW,206,7.0,9.0,39,0.00,,,0.00,Wunderground v.1.15,2013-03-10 17:25:00,
2013-03-10 13:30:00,56.2,30.9,30.06,SSW,203,7.0,7.0,38,0.00,,,0.00,Wunderground v.1.15,2013-03-10 17:30:00,
2013-03-10 13:35:00,56.5,31.2,30.06,SW,228,6.0,10.0,38,0.00,,,0.00,Wunderground v.1.15,2013-03-10 17:35:00,
2013-03-10 13:40:00,56.7,31.4,30.06,SSE,158,5.0,5.0,38,0.00,,,0.00,Wunderground v.1.15,2013-03-10 17:40:00,
2013-03-10 13:45:00,56.9,30.9,30.05,SW,222,6.0,6.0,37,0.00,,,0.00,Wunderground v.1.15,2013-03-10 17:45:00,
2013-03-10 13:50:00,57.0,31.6,30.05,South,171,5.0,5.0,38,0.00,,,0.00,Wunderground v.1.15,2013-03-10 17:50:00,
2013-03-10 14:00:00,58.0,32.5,30.05,SSW,204,5.0,5.0,38,0.00,,,0.00,Wunderground v.1.15,2013-03-10 18:00:00,
2013-03-10 14:05:00,57.9,32.4,30.05,West,260,4.0,8.0,38,0.00,,,0.00,Wunderground v.1.15,2013-03-10 18:05:00,
2013-03-10 14:10:00,58.2,32.7,30.04,SW,235,3.0,8.0,38,0.00,,,0.00,Wunderground v.1.15,2013-03-10 18:10:00,
2013-03-10 14:15:00,58.9,33.3,30.04,WSW,248,3.0,8.0,38,0.00,,,0.00,Wunderground v.1.15,2013-03-10 18:15:00,
2013-03-10 14:20:00,59.4,33.8,30.04,SSW,198,3.0,8.0,38,0.00,,,0.00,Wunderground v.1.15,2013-03-10 18:20:00,
2013-03-10 14:30:00,59.1,32.1,30.03,SSE,163,6.0,6.0,36,0.00,,,0.00,Wunderground v.1.15,2013-03-10 18:30:00,
2013-03-10 14:40:00,58.2,32.7,30.03,SE,124,5.0,5.0,38,0.00,,,0.00,Wunderground v.1.15,2013-03-10 18:40:00,
2013-03-10 14:45:00,57.9,31.1,30.03,SW,222,5.0,8.0,36,0.00,,,0.00,Wunderground v.1.15,2013-03-10 18:45:00,
2013-03-10 14:50:00,57.8,32.3,30.02,SW,227,4.0,4.0,38,0.00,,,0.00,Wunderground v.1.15,2013-03-10 18:50:00,
2013-03-10 14:55:00,57.8,33.0,30.01,SSW,206,3.0,8.0,39,0.00,,,0.00,Wunderground v.1.15,2013-03-10 18:55:00,
2013-03-10 15:05:00,57.8,32.3,30.01,SE,140,2.0,8.0,38,0.00,,,0.00,Wunderground v.1.15,2013-03-10 19:05:00,
2013-03-10 15:10:00,57.9,31.8,30.01,South,190,3.0,8.0,37,0.00,,,0.00,Wunderground v.1.15,2013-03-10 19:10:00,
2013-03-10 15:15:00,58.3,32.8,30.01,SW,219,4.0,8.0,38,0.00,,,0.00,Wunderground v.1.15,2013-03-10 19:15:00,
2013-03-10 15:20:00,58.9,32.7,30.01,SW,227,5.0,8.0,37,0.00,,,0.00,Wunderground v.1.15,2013-03-10 19:20:00,
2013-03-10 15:25:00,59.7,33.4,30.00,SSE,151,5.0,8.0,37,0.00,,,0.00,Wunderground v.1.15,2013-03-10 19:25:00,
2013-03-10 15:30:00,60.2,33.1,30.00,SW,229,4.0,11.0,36,0.00,,,0.00,Wunderground v.1.15,2013-03-10 19:30:00,
2013-03-10 15:40:00,60.1,33.7,30.00,SSE,157,7.0,7.0,37,0.00,,,0.00,Wunderground v.1.15,2013-03-10 19:40:00,
2013-03-10 15:45:00,60.2,34.5,30.00,SE,124,6.0,8.0,38,0.00,,,0.00,Wunderground v.1.15,2013-03-10 19:45:00,
2013-03-10 15:50:00,60.4,34.0,29.99,SSW,204,4.0,4.0,37,0.00,,,0.00,Wunderground v.1.15,2013-03-10 19:50:00,
2013-03-10 15:55:00,60.5,34.1,29.99,SSW,195,4.0,8.0,37,0.00,,,0.00,Wunderground v.1.15,2013-03-10 19:55:00,
2013-03-10 16:00:00,59.9,33.5,29.99,SW,224,4.0,8.0,37,0.00,,,0.00,Wunderground v.1.15,2013-03-10 20:00:00,
2013-03-10 16:05:00,59.3,33.7,29.98,SW,215,4.0,8.0,38,0.00,,,0.00,Wunderground v.1.15,2013-03-10 20:05:00,
2013-03-10 16:15:00,59.1,34.1,29.98,SW,234,5.0,8.0,39,0.00,,,0.00,Wunderground v.1.15,2013-03-10 20:15:00,
2013-03-10 16:20:00,59.0,34.7,29.98,SW,217,4.0,8.0,40,0.00,,,0.00,Wunderground v.1.15,2013-03-10 20:20:00,
2013-03-10 16:25:00,59.0,34.7,29.98,South,188,2.0,8.0,40,0.00,,,0.00,Wunderground v.1.15,2013-03-10 20:25:00,
2013-03-10 16:30:00,59.1,33.5,29.98,South,184,3.0,8.0,38,0.00,,,0.00,Wunderground v.1.15,2013-03-10 20:30:00,
2013-03-10 16:35:00,59.1,34.8,29.98,SSW,192,4.0,8.0,40,0.00,,,0.00,Wunderground v.1.15,2013-03-10 20:35:00,
2013-03-10 16:40:00,59.0,34.1,29.98,SW,217,3.0,3.0,39,0.00,,,0.00,Wunderground v.1.15,2013-03-10 20:40:00,
2013-03-10 16:45:00,58.9,34.6,29.97,SW,219,3.0,5.0,40,0.00,,,0.00,Wunderground v.1.15,2013-03-10 20:45:00,
2013-03-10 16:55:00,58.8,33.2,29.97,SW,225,3.0,8.0,38,0.00,,,0.00,Wunderground v.1.15,2013-03-10 20:55:00,
2013-03-10 17:00:00,59.0,33.4,29.97,SSW,203,4.0,4.0,38,0.00,,,0.00,Wunderground v.1.15,2013-03-10 21:00:00,
2013-03-10 17:05:00,59.1,33.5,29.98,SSW,197,5.0,5.0,38,0.00,,,0.00,Wunderground v.1.15,2013-03-10 21:05:00,
2013-03-10 17:10:00,59.3,33.7,29.97,SSW,211,5.0,8.0,38,0.00,,,0.00,Wunderground v.1.15,2013-03-10 21:10:00,
2013-03-10 17:20:00,59.4,33.1,29.97,SSW,192,5.0,5.0,37,0.00,,,0.00,Wunderground v.1.15,2013-03-10 21:20:00,
2013-03-10 17:25:00,59.8,33.5,29.97,SSW,200,6.0,6.0,37,0.00,,,0.00,Wunderground v.1.15,2013-03-10 21:25:00,
2013-03-10 17:30:00,59.9,32.9,29.98,SW,220,6.0,6.0,36,0.00,,,0.00,Wunderground v.1.15,2013-03-10 21:30:00,
2013-03-10 17:35:00,59.9,34.2,29.96,SSW,205,5.0,7.0,38,0.00,,,0.00,Wunderground v.1.15,2013-03-10 21:35:00,
2013-03-10 17:40:00,59.6,33.3,29.97,SW,217,4.0,10.0,37,0.00,,,0.00,Wunderground v.1.15,2013-03-10 21:40:00,
2013-03-10 17:45:00,59.5,33.2,29.96,SE,140,5.0,10.0,37,0.00,,,0.00,Wunderground v.1.15,2013-03-10 21:45:00,
2013-03-10 17:50:00,59.5,31.8,29.97,SW,229,6.0,6.0,35,0.00,,,0.00,Wunderground v.1.15,2013-03-10 21:50:00,
2013-03-10 18:00:00,59.5,32.5,29.97,SSW,209,5.0,8.0,36,0.00,,,0.00,Wunderground v.1.15,2013-03-10 22:00:00,
2013-03-10 18:05:00,59.4,31.7,29.97,SW,221,5.0,8.0,35,0.00,,,0.00,Wunderground v.1.15,2013-03-10 22:05:00,
2013-03-10 18:10:00,59.3,30.9,29.97,SSW,211,6.0,8.0,34,0.00,,,0.00,Wunderground v.1.15,2013-03-10 22:10:00,
2013-03-10 18:15:00,59.1,31.4,29.97,SSW,211,6.0,8.0,35,0.00,,,0.00,Wunderground v.1.15,2013-03-10 22:15:00,
2013-03-10 18:25:00,58.6,31.7,29.97,SW,219,3.0,8.0,36,0.00,,,0.00,Wunderground v.1.15,2013-03-10 22:25:00,
2013-03-10 18:30:00,58.4,32.2,29.97,SSW,203,3.0,3.0,37,0.00,,,0.00,Wunderground v.1.15,2013-03-10 22:30:00,
2013-03-10 18:35:00,58.1,31.3,29.97,SSW,205,3.0,5.0,36,0.00,,,0.00,Wunderground v.1.15,2013-03-10 22:35:00,
2013-03-10 18:40:00,58.0,31.8,29.97,SSE,163,3.0,8.0,37,0.00,,,0.00,Wunderground v.1.15,2013-03-10 22:40:00,
2013-03-10 18:45:00,57.9,31.1,29.97,South,178,4.0,8.0,36,0.00,,,0.00,Wunderground v.1.15,2013-03-10 22:45:00,
2013-03-10 18:50:00,57.9,31.8,29.97,SW,217,4.0,8.0,37,0.00,,,0.00,Wunderground v.1.15,2013-03-10 22:50:00,
2013-03-10 19:00:00,57.9,30.4,29.97,SSW,211,4.0,8.0,35,0.00,,,0.00,Wunderground v.1.15,2013-03-10 23:00:00,
2013-03-10 19:05:00,57.8,31.0,29.98,SSW,206,5.0,8.0,36,0.00,,,0.00,Wunderground v.1.15,2013-03-10 23:05:00,
2013-03-10 19:10:00,57.5,30.7,29.98,SW,229,4.0,4.0,36,0.00,,,0.00,Wunderground v.1.15,2013-03-10 23:10:00,
2013-03-10 19:15:00,57.3,30.5,29.99,SSW,204,4.0,6.0,36,0.00,,,0.00,Wunderground v.1.15,2013-03-10 23:15:00,
2013-03-10 19:20:00,57.1,31.0,29.99,SSW,202,4.0,4.0,37,0.00,,,0.00,Wunderground v.1.15,2013-03-10 23:20:00,
2013-03-10 19:25:00,57.0,30.3,29.99,SW,222,5.0,5.0,36,0.00,,,0.00,Wunderground v.1.15,2013-03-10 23:25:00,
2013-03-10 19:35:00,56.8,30.8,30.00,SW,216,5.0,8.0,37,0.00,,,0.00,Wunderground v.1.15,2013-03-10 23:35:00,
2013-03-10 19:40:00,56.6,29.9,30.00,SSW,204,5.0,5.0,36,0.00,,,0.00,Wunderground v.1.15,2013-03-10 23:40:00,
2013-03-10 19:45:00,56.4,31.1,30.00,SW,223,3.0,8.0,38,0.00,,,0.00,Wunderground v.1.15,2013-03-10 23:45:00,
2013-03-10 19:50:00,56.0,30.7,30.00,SSW,196,2.0,8.0,38,0.00,,,0.00,Wunderground v.1.15,2013-03-10 23:50:00,
2013-03-10 19:55:00,55.7,31.1,30.00,SSW,204,2.0,8.0,39,0.00,,,0.00,Wunderground v.1.15,2013-03-10 23:55:00,
2013-03-10 20:00:00,55.7,31.1,30.01,SSW,198,2.0,2.0,39,0.00,,,0.00,Wunderground v.1.15,2013-03-11 00:00:00,
2013-03-10 20:10:00,55.3,30.7,30.01,SSE,153,2.0,2.0,39,0.00,,,0.00,Wunderground v.1.15,2013-03-11 00:10:00,
2013-03-10 20:15:00,54.9,31.6,30.00,ESE,123,1.0,8.0,41,0.00,,,0.00,Wunderground v.1.15,2013-03-11 00:15:00,
2013-03-10 20:20:00,54.5,31.3,30.00,SSE,167,1.0,1.0,41,0.00,,,0.00,Wunderground v.1.15,2013-03-11 00:20:00,
2013-03-10 20:25:00,54.2,31.0,30.00,SE,138,1.0,8.0,41,0.00,,,0.00,Wunderground v.1.15,2013-03-11 00:25:00,
2013-03-10 20:30:00,54.0,31.4,30.00,ESE,123,0.0,8.0,42,0.00,,,0.00,Wunderground v.1.15,2013-03-11 00:30:00,
2013-03-10 20:35:00,53.8,31.2,30.00,SE,128,1.0,8.0,42,0.00,,,0.00,Wunderground v.1.15,2013-03-11 00:35:00,
2013-03-10 20:45:00,53.5,31.5,30.00,SSE,153,1.0,8.0,43,0.00,,,0.00,Wunderground v.1.15,2013-03-11 00:45:00,
2013-03-10 20:50:00,53.3,31.4,30.00,SE,132,1.0,8.0,43,0.00,,,0.00,Wunderground v.1.15,2013-03-11 00:50:00,
2013-03-10 20:55:00,53.2,31.3,30.00,SSW,209,1.0,8.0,43,0.00,,,0.00,Wunderground v.1.15,2013-03-11 00:55:00,
2013-03-10 21:00:00,53.2,31.3,30.00,SSW,199,1.0,8.0,43,0.00,,,0.00,Wunderground v.1.15,2013-03-11 01:00:00,
2013-03-10 21:05:00,53.1,31.2,30.00,SSE,161,0.0,8.0,43,0.00,,,0.00,Wunderground v.1.15,2013-03-11 01:05:00,
2013-03-10 21:10:00,53.5,31.0,30.01,SW,227,1.0,8.0,42,0.00,,,0.00,Wunderground v.1.15,2013-03-11 01:10:00,
2013-03-10 21:15:00,53.7,31.1,30.01,South,186,2.0,8.0,42,0.00,,,0.00,Wunderground v.1.15,2013-03-11 01:15:00,
2013-03-10 21:25:00,53.7,31.1,30.00,SSE,159,3.0,8.0,42,0.00,,,0.00,Wunderground v.1.15,2013-03-11 01:25:00,
2013-03-10 21:30:00,53.5,31.5,30.01,SSW,211,2.0,2.0,43,0.00,,,0.00,Wunderground v.1.15,2013-03-11 01:30:00,
2013-03-10 21:35:00,53.6,30.4,30.01,SSW,210,2.0,8.0,41,0.00,,,0.00,Wunderground v.1.15,2013-03-11 01:35:00,
2013-03-10 21:40:00,53.8,30.6,30.01,SSW,213,3.0,14.0,41,0.00,,,0.00,Wunderground v.1.15,2013-03-11 01:40:00,
2013-03-10 21:45:00,53.9,30.7,30.02,SW,221,4.0,14.0,41,0.00,,,0.00,Wunderground v.1.15,2013-03-11 01:45:00,
2013-03-10 21:55:00,53.9,31.3,30.01,SSW,208,5.0,8.0,42,0.00,,,0.00,Wunderground v.1.15,2013-03-11 01:55:00,
2013-03-10 22:00:00,53.6,31.0,30.01,SSW,202,4.0,8.0,42,0.00,,,0.00,Wunderground v.1.15,2013-03-11 02:00:00,
2013-03-10 22:05:00,53.6,30.4,30.01,SSW,213,6.0,10.0,41,0.00,,,0.00,Wunderground v.1.15,2013-03-11 02:05:00,
2013-03-10 22:10:00,53.8,30.6,30.00,SW,217,8.0,8.0,41,0.00,,,0.00,Wunderground v.1.15,2013-03-11 02:10:00,
2013-03-10 22:15:00,53.7,30.5,30.01,SW,214,8.0,8.0,41,0.00,,,0.00,Wunderground v.1.15,2013-03-11 02:15:00,
2013-03-10 22:20:00,53.7,30.5,30.01,SSW,205,7.0,8.0,41,0.00,,,0.00,Wunderground v.1.15,2013-03-11 02:20:00,
2013-03-10 22:30:00,53.6,31.0,30.00,SSW,194,7.0,8.0,42,0.00,,,0.00,Wunderground v.1.15,2013-03-11 02:30:00,
2013-03-10 22:35:00,53.6,30.4,30.00,SW,215,8.0,8.0,41,0.00,,,0.00,Wunderground v.1.15,2013-03-11 02:35:00,
2013-03-10 22:40:00,53.4,30.9,29.99,SSW,206,7.0,9.0,42,0.00,,,0.00,Wunderground v.1.15,2013-03-11 02:40:00,
2013-03-10 22:45:00,53.2,31.3,29.98,SSW,203,8.0,9.0,43,0.00,,,0.00,Wunderground v.1.15,2013-03-11 02:45:00,
2013-03-10 22:50:00,52.6,30.7,29.98,SSW,211,6.0,10.0,43,0.00,,,0.00,Wunderground v.1.15,2013-03-11 02:50:00,
2013-03-10 22:55:00,52.8,30.9,29.99,SW,220,7.0,10.0,43,0.00,,,0.00,Wunderground v.1.15,2013-03-11 02:55:00,
2013-03-10 23:05:00,52.6,31.3,29.98,SE,131,7.0,8.0,44,0.00,,,0.00,Wunderground v.1.15,2013-03-11 03:05:00,
2013-03-10 23:10:00,52.2,30.9,29.98,SW,226,6.0,6.0,44,0.00,,,0.00,Wunderground v.1.15,2013-03-11 03:10:00,
2013-03-10 23:15:00,52.4,31.1,29.99,SW,236,5.0,8.0,44,0.00,,,0.00,Wunderground v.1.15,2013-03-11 03:15:00,
2013-03-10 23:20:00,52.5,30.6,29.99,West,265,5.0,5.0,43,0.00,,,0.00,Wunderground v.1.15,2013-03-11 03:20:00,
2013-03-10 23:25:00,52.6,30.7,29.98,SW,217,6.0,7.0,43,0.00,,,0.00,Wunderground v.1.15,2013-03-11 03:25:00,
2013-03-10 23:30:00,52.6,31.3,29.98,SSW,206,7.0,10.0,44,0.00,,,0.00,Wunderground v.1.15,2013-03-11 03:30:00,
2013-03-10 23:40:00,52.2,30.9,29.98,SSW,213,6.0,10.0,44,0.00,,,0.00,Wunderground v.1.15,2013-03-11 03:40:00,
2013-03-10 23:45:00,52.2,30.4,29.98,SW,232,7.0,10.0,43,0.00,,,0.00,Wunderground v.1.15,2013-03-11 03:45:00,
2013-03-10 23:50:00,52.2,30.9,29.98,SSW,202,8.0,8.0,44,0.00,,,0.00,Wunderground v.1.15,2013-03-11 03:50:00,
2013-03-10 23:55:00,52.2,30.9,29.97,SW,233,9.0,10.0,44,0.00,,,0.00,Wunderground v.1.15,2013-03-11 03:55:00,